TimeCDT,TemperatureF,Dew PointF,Humidity,Sea Level PressureIn,VisibilityMPH,Wind Direction,Wind SpeedMPH,Gust SpeedMPH,PrecipitationIn,Events,Conditions,WindDirDegrees,DateUTC
12:15 AM,32.0,30.2,93,29.79,1.0,NW,4.6,-,0.02,Snow,Snow,310,2013-04-11 05:15:00
12:35 AM,30.2,30.2,100,29.79,1.2,NW,3.5,-,0.03,Snow,Light Snow,320,2013-04-11 05:35:00
12:55 AM,30.2,30.2,100,29.78,1.2,Calm,Calm,-,0.04,Snow,Light Snow,0,2013-04-11 05:55:00
1:15 AM,30.2,30.2,100,29.77,1.8,NNW,3.5,-,N/A,Snow,Light Snow,330,2013-04-11 06:15:00
1:35 AM,30.2,30.2,100,29.76,1.2,NNW,3.5,-,0.01,Snow,Snow,330,2013-04-11 06:35:00
1:55 AM,30.2,30.2,100,29.76,1.2,NNW,3.5,-,0.02,Snow,Light Snow,340,2013-04-11 06:55:00
2:15 AM,30.2,30.2,100,29.74,1.2,Calm,Calm,-,N/A,Snow,Light Snow,0,2013-04-11 07:15:00
2:35 AM,30.2,30.2,100,29.72,1.5,Calm,Calm,-,0.01,Snow,Light Snow,0,2013-04-11 07:35:00
2:55 AM,32.0,30.2,93,29.71,3.0,Calm,Calm,-,0.02,Snow,Light Snow,0,2013-04-11 07:55:00
3:15 AM,32.0,30.2,93,29.71,4.0,Calm,Calm,-,N/A,Snow,Light Snow,0,2013-04-11 08:15:00
3:35 AM,32.0,30.2,93,29.69,3.0,Calm,Calm,-,N/A,Snow,Light Snow,0,2013-04-11 08:35:00
3:55 AM,32.0,30.2,93,29.68,3.0,Calm,Calm,-,N/A,Snow,Light Snow,0,2013-04-11 08:55:00
4:15 AM,32.0,30.2,93,29.67,3.0,Calm,Calm,-,N/A,Snow,Light Snow,0,2013-04-11 09:15:00
4:35 AM,30.2,30.2,100,29.66,4.0,Calm,Calm,-,N/A,Snow,Light Snow,0,2013-04-11 09:35:00
4:55 AM,30.2,30.2,100,29.65,5.0,Calm,Calm,-,N/A,,Overcast,0,2013-04-11 09:55:00
5:15 AM,32.0,30.2,93,29.65,7.0,Calm,Calm,-,N/A,,Overcast,0,2013-04-11 10:15:00
5:35 AM,32.0,30.2,93,29.64,5.0,Calm,Calm,-,N/A,,Overcast,0,2013-04-11 10:35:00
5:55 AM,30.2,30.2,100,29.62,5.0,Calm,Calm,-,N/A,,Overcast,0,2013-04-11 10:55:00
6:15 AM,32.0,30.2,93,29.62,7.0,Calm,Calm,-,N/A,,Overcast,0,2013-04-11 11:15:00
6:35 AM,32.0,30.2,93,29.61,2.5,Calm,Calm,-,N/A,,Overcast,0,2013-04-11 11:35:00
6:55 AM,32.0,30.2,93,29.62,1.0,Calm,Calm,-,N/A,,Overcast,0,2013-04-11 11:55:00
7:15 AM,32.0,32.0,100,29.62,1.0,Calm,Calm,-,N/A,,Light Drizzle,0,2013-04-11 12:15:00
7:35 AM,32.0,32.0,100,29.62,1.5,Calm,Calm,-,N/A,,Light Drizzle,0,2013-04-11 12:35:00
7:55 AM,33.8,32.0,93,29.63,1.5,Calm,Calm,-,N/A,,Light Drizzle,0,2013-04-11 12:55:00
8:15 AM,32.0,32.0,100,29.63,0.8,Calm,Calm,-,N/A,,Overcast,0,2013-04-11 13:15:00
8:35 AM,33.8,32.0,93,29.62,0.5,Calm,Calm,-,N/A,,Overcast,0,2013-04-11 13:35:00
8:55 AM,32.0,32.0,100,29.62,0.8,Calm,Calm,-,N/A,Rain,Light Rain,0,2013-04-11 13:55:00
9:15 AM,33.8,32.0,93,29.61,1.2,Calm,Calm,-,N/A,,Light Drizzle,0,2013-04-11 14:15:00
9:35 AM,33.8,32.0,93,29.61,2.0,Calm,Calm,-,N/A,,Overcast,0,2013-04-11 14:35:00
9:55 AM,33.8,32.0,93,29.61,2.0,Calm,Calm,-,N/A,,Overcast,0,2013-04-11 14:55:00
10:15 AM,33.8,32.0,93,29.62,4.0,NE,3.5,-,N/A,,Overcast,40,2013-04-11 15:15:00
10:35 AM,33.8,32.0,93,29.62,1.2,NE,4.6,-,N/A,,Overcast,50,2013-04-11 15:35:00
10:55 AM,33.8,32.0,93,29.62,4.0,NE,3.5,-,N/A,,Overcast,50,2013-04-11 15:55:00
11:15 AM,33.8,32.0,93,29.62,2.5,NE,4.6,-,N/A,,Overcast,40,2013-04-11 16:15:00
11:35 AM,33.8,32.0,93,29.62,2.0,NNE,3.5,-,N/A,Rain,Light Rain,30,2013-04-11 16:35:00
12:15 PM,33.8,32.0,93,29.62,2.5,NNE,3.5,-,N/A,,Overcast,20,2013-04-11 17:15:00
12:35 PM,33.8,32.0,93,29.61,5.0,North,3.5,-,N/A,,Overcast,360,2013-04-11 17:35:00
12:55 PM,33.8,32.0,93,29.60,3.0,North,3.5,-,N/A,,Overcast,350,2013-04-11 17:55:00
1:15 PM,33.8,32.0,93,29.60,3.0,North,4.6,-,N/A,,Overcast,350,2013-04-11 18:15:00
1:35 PM,33.8,32.0,93,29.60,4.0,NNW,4.6,-,N/A,,Overcast,340,2013-04-11 18:35:00
1:55 PM,33.8,32.0,93,29.60,3.0,NNW,8.1,-,N/A,,Overcast,340,2013-04-11 18:55:00
2:15 PM,33.8,32.0,93,29.60,2.5,North,5.8,-,N/A,Rain,Rain,350,2013-04-11 19:15:00
2:35 PM,33.8,32.0,93,29.60,3.0,NNW,9.2,-,0.01,Rain,Light Rain,340,2013-04-11 19:35:00
2:55 PM,33.8,33.8,100,29.60,4.0,NNW,8.1,-,0.01,Rain,Light Rain,340,2013-04-11 19:55:00
3:15 PM,33.8,33.8,100,29.61,5.0,North,9.2,-,N/A,Rain,Light Rain,350,2013-04-11 20:15:00
3:35 PM,33.8,32.0,93,29.60,2.5,North,10.4,-,N/A,Rain,Rain,350,2013-04-11 20:35:00
3:55 PM,33.8,33.8,100,29.61,2.0,North,6.9,-,0.01,Rain,Rain,10,2013-04-11 20:55:00
4:15 PM,33.8,32.0,93,29.61,2.5,North,5.8,-,N/A,Rain,Light Rain,10,2013-04-11 21:15:00
4:35 PM,33.8,33.8,100,29.62,3.0,North,5.8,-,N/A,Rain,Light Rain,360,2013-04-11 21:35:00
4:55 PM,33.8,32.0,93,29.62,2.0,North,8.1,-,0.01,Rain,Rain,360,2013-04-11 21:55:00
5:15 PM,33.8,32.0,93,29.62,2.5,NNW,5.8,-,N/A,Rain,Light Rain,340,2013-04-11 22:15:00
5:35 PM,33.8,32.0,93,29.63,1.5,NNW,8.1,-,N/A,Rain,Rain,340,2013-04-11 22:35:00
5:55 PM,33.8,32.0,93,29.63,1.2,NNW,9.2,-,N/A,,Overcast,330,2013-04-11 22:55:00
6:15 PM,33.8,32.0,93,29.63,1.2,NW,6.9,-,0.01,Snow,Light Snow,320,2013-04-11 23:15:00
6:35 PM,33.8,32.0,93,29.63,1.5,NNW,9.2,-,0.01,Snow,Light Snow,330,2013-04-11 23:35:00
6:55 PM,33.8,30.2,87,29.63,1.2,NNW,10.4,-,0.01,Snow,Light Snow,330,2013-04-11 23:55:00
7:15 PM,33.8,30.2,87,29.64,1.5,NNW,9.2,-,N/A,Snow,Light Snow,330,2013-04-12 00:15:00
7:35 PM,33.8,30.2,87,29.63,5.0,NW,12.7,-,N/A,Snow,Light Snow,320,2013-04-12 00:35:00
7:55 PM,33.8,30.2,87,29.64,4.0,NW,10.4,-,N/A,Snow,Light Snow,320,2013-04-12 00:55:00
8:15 PM,33.8,30.2,87,29.64,7.0,NW,10.4,-,N/A,,Overcast,320,2013-04-12 01:15:00
8:35 PM,33.8,30.2,87,29.65,4.0,NW,10.4,-,N/A,Snow,Light Snow,320,2013-04-12 01:35:00
8:55 PM,32.0,30.2,93,29.65,2.5,NW,10.4,-,N/A,Snow,Light Snow,320,2013-04-12 01:55:00
9:15 PM,32.0,30.2,93,29.66,3.0,NW,11.5,-,N/A,Snow,Light Snow,320,2013-04-12 02:15:00
9:35 PM,32.0,30.2,93,29.66,2.5,NW,15.0,-,N/A,,Overcast,320,2013-04-12 02:35:00
9:55 PM,32.0,30.2,93,29.67,2.5,NW,12.7,-,N/A,,Overcast,320,2013-04-12 02:55:00
10:15 PM,32.0,30.2,93,29.67,2.5,NW,12.7,-,N/A,,Overcast,320,2013-04-12 03:15:00
10:35 PM,32.0,30.2,93,29.68,2.5,NNW,10.4,-,N/A,,Drizzle,330,2013-04-12 03:35:00
10:55 PM,32.0,30.2,93,29.68,2.0,North,11.5,-,N/A,,Overcast,350,2013-04-12 03:55:00
11:15 PM,32.0,30.2,93,29.68,3.0,NNW,9.2,-,N/A,,Overcast,340,2013-04-12 04:15:00
11:35 PM,33.8,30.2,87,29.68,3.0,NNW,10.4,-,N/A,,Overcast,340,2013-04-12 04:35:00
11:55 PM,33.8,30.2,87,29.69,7.0,NNW,8.1,-,N/A,,Overcast,340,2013-04-12 04:55:00